Hourly Data Report for October 20, 2016

All times are specified in Local Standard Time (LST). Add 1 hour to adjust for Daylight Saving Time where and when it is observed.

MONCTON INTL A
NEW BRUNSWICK

46°06'44.000" N
64°40'43.000" W
70.70 m
8103201
71705
YQM

Download Data

Hourly Data (October 2016)
Hourly Data Report for October 20, 2016
Temp Definition
°C
Dew Point Temp Definition
°C
Rel Hum Definition
%
Wind Dir Definition
10's deg

Wind Spd Definition
km/h
Visibility Definition
km
Stn Press Definition
kPa
Hmdx Definition


Wind Chill Definition


Weather Definition


TIME
00:00 Legend Double Dagger 8.6 5.4 80 27 18 24.1 100.93     LegendNANA
01:00 Legend Double Dagger 7.7 5.0 83 27 17 24.1 101.00     LegendNANA
02:00 Legend Double Dagger 7.0 4.5 84 28 17 24.1 101.10     Clear
03:00 Legend Double Dagger 6.2 3.7 84 26 14 24.1 101.20     LegendNANA
04:00 Legend Double Dagger 5.5 3.5 87 26 14 24.1 101.26     LegendNANA
05:00 Legend Double Dagger 3.8 2.5 91 22 9 24.1 101.33     Clear
06:00 Legend Double Dagger 3.4 2.7 95 24 14 24.1 101.46     LegendNANA
07:00 Legend Double Dagger 4.8 3.2 89 26 16 24.1 101.52     LegendNANA
08:00 Legend Double Dagger 6.6 3.6 81 27 16 24.1 101.63     Mainly Clear
09:00 Legend Double Dagger 9.4 4.2 70 27 14 24.1 101.71     LegendNANA
10:00 Legend Double Dagger 11.3 3.1 57 34 19 24.1 101.70     LegendNANA
11:00 Legend Double Dagger 12.6 3.1 52 32 17 24.1 101.71     Mostly Cloudy
12:00 Legend Double Dagger 13.4 3.0 49 3 10 24.1 101.72     LegendNANA
13:00 Legend Double Dagger 13.1 2.7 49 24 5 24.1 101.69     LegendNANA
14:00 Legend Double Dagger 12.9 3.3 52 5 14 24.1 101.71     Mostly Cloudy
15:00 Legend Double Dagger 11.6 2.4 53 6 16 24.1 101.77     LegendNANA
16:00 Legend Double Dagger 11.2 2.3 54 7 9 24.1 101.76     LegendNANA
17:00 Legend Double Dagger 9.8 3.6 65 4 6 24.1 101.86     Mostly Cloudy
18:00 Legend Double Dagger 9.1 3.3 67 8 7 24.1 101.92     LegendNANA
19:00 Legend Double Dagger 8.2 4.2 76 9 7 24.1 101.90     LegendNANA
20:00 Legend Double Dagger 8.3 4.2 75 4 4 24.1 101.90     Cloudy
21:00 Legend Double Dagger 8.9 4.7 75 12 11 24.1 101.90     LegendNANA
22:00 Legend Double Dagger 8.4 5.4 81 10 10 24.1 101.83     LegendNANA
23:00 Legend Double Dagger 8.1 5.6 84 9 9 24.1 101.81     Cloudy

Notes on Data Quality.

Legend

  • E = Estimated
  • M = Missing
  • NA = Not Available
  • ‡ = Partner data that is not subject to review by the National Climate Archives
Date modified: